Girona, Spain

11:21 AM CET on January 16, 2018 (GMT +0100)
Girona

Weather History for LEGE - June, 2013

Change the Weather History Date:

Wednesday, June 5, 2013

  Actual Average Record
Temperature  
Mean Temperature 62 °F -  
Max Temperature 75 °F 82 °F 91 °F (2015)
Min Temperature 49 °F 59 °F 49 °F (2013)
Degree Days  
Heating Degree Days 3    
Growing Degree Days 12 (Base 50)    
Moisture  
Dew Point 52 °F    
Average Humidity 70    
Maximum Humidity 100    
Minimum Humidity 34    
Precipitation  
Precipitation 0.00 in 0.08 in - ()
Sea Level Pressure  
Sea Level Pressure 29.97 in    
Wind  
Wind Speed 4 mph ()    
Max Wind Speed 20 mph    
Max Gust Speed -    
Visibility 6.8 miles    
Events Fog    
Averages and records for this station are not official NWS values.
T = Trace of Precipitation, MM = Missing Value Source: Averaged Metar Reports

Daily Weather History Graph

Daily Weather History Graph

Search for Another Location

Airport or City:

Trip Planner

Search our weather history database for the weather conditions in past years. The results will help you decide how hot, cold, wet, or windy it might be!

Date:

Astronomy

Jun. 05, 2013 Rise Set
Actual Time 6:14 AM CEST 9:20 PM CEST
Civil Twilight 5:40 AM CEST 9:54 PM CEST
Nautical Twilight 4:57 AM CEST 10:37 PM CEST
Astronomical Twilight 4:06 AM CEST 11:29 PM CEST
Moon 4:12 AM CEST (6/5) 6:30 PM CEST (6/5)
Length of Visible Light 16h 13m
Length of Day
15h 05m
Waning Crescent, 9% of the Moon is Illuminated
Jun 5
Waning Crescent
Jun 8
New
Jun 16
First Quarter
Jun 23
Full
Jun 30
Last Quarter

Hourly Weather History & Observations

Time (CEST) Temp. Dew Point Humidity Pressure Visibility Wind Dir Wind Speed Gust Speed Precip Events Conditions
12:00 AM 57.2 °F 55.4 °F 94% 30.01 in 6.2 mi Variable 1.2 mph - N/A   Partly Cloudy
12:30 AM 57.2 °F 55.4 °F 94% 30.01 in 6.2 mi Variable 2.3 mph - N/A   Partly Cloudy
1:00 AM 57.2 °F 55.4 °F 94% 30.01 in 6.2 mi Calm Calm - N/A   Partly Cloudy
1:30 AM 55.4 °F 55.4 °F 100% 30.01 in 6.2 mi West 2.3 mph - N/A   Partly Cloudy
2:00 AM 55 °F 53 °F 92% 29.99 in - Calm Calm - -  
2:00 AM 55.4 °F 53.6 °F 94% 30.01 in 6.2 mi Calm Calm - N/A   Partly Cloudy
2:30 AM 55.4 °F 53.6 °F 94% 29.98 in 6.2 mi Calm Calm - N/A   Partly Cloudy
3:00 AM 55.4 °F 55.4 °F 100% 29.98 in 6.2 mi Calm Calm - N/A   Partly Cloudy
3:30 AM 53.6 °F 51.8 °F 94% 29.98 in 6.2 mi Calm Calm - N/A   Partly Cloudy
4:00 AM 53.6 °F 53.6 °F 100% 29.98 in 6.2 mi Calm Calm - N/A   Partly Cloudy
4:30 AM 53.6 °F 51.8 °F 94% 29.98 in 6.2 mi West 1.2 mph - N/A   Partly Cloudy
5:00 AM 51.8 °F 51.8 °F 100% 29.98 in 6.2 mi Calm Calm - N/A   Partly Cloudy
5:30 AM 50.0 °F 50.0 °F 100% 29.95 in 5.6 mi Calm Calm - N/A   Partly Cloudy
6:00 AM 50.0 °F 50.0 °F 100% 29.95 in 6.2 mi WNW 2.3 mph - N/A Fog Partly Cloudy
6:30 AM 50.0 °F 50.0 °F 100% 29.98 in 6.2 mi Calm Calm - N/A   Partly Cloudy
7:00 AM 50.0 °F 50.0 °F 100% 29.98 in 6.2 mi Calm Calm - N/A   Partly Cloudy
7:30 AM 51.8 °F 51.8 °F 100% 29.98 in 6.2 mi Calm Calm - N/A   Partly Cloudy
8:00 AM 55 °F 51 °F 83% 29.99 in 16 mi Calm Calm - -   Scattered Clouds
8:00 AM 53.6 °F 51.8 °F 94% 29.98 in 6.2 mi Calm Calm - N/A   Partly Cloudy
8:30 AM 57.2 °F 53.6 °F 88% 29.98 in 6.2 mi Calm Calm - N/A   Partly Cloudy
9:00 AM 60.8 °F 53.6 °F 77% 29.98 in 6.2 mi Calm Calm - N/A   Partly Cloudy
9:30 AM 60.8 °F 53.6 °F 77% 30.01 in 6.2 mi Variable 1.2 mph - N/A   Partly Cloudy
10:00 AM 64.4 °F 53.6 °F 68% 29.98 in 6.2 mi SSW 2.3 mph - N/A   Partly Cloudy
10:30 AM 68.0 °F 53.6 °F 60% 29.98 in 6.2 mi South 5.8 mph - N/A   Partly Cloudy
11:00 AM 69.8 °F 53.6 °F 56% 29.98 in 6.2 mi SSW 9.2 mph - N/A   Partly Cloudy
11:30 AM 71.6 °F 50.0 °F 46% 29.95 in 6.2 mi SSW 9.2 mph - N/A   Partly Cloudy
12:00 PM 73.4 °F 50.0 °F 44% 29.95 in 6.2 mi SSW 12.7 mph - N/A   Partly Cloudy
12:30 PM 73.4 °F 48.2 °F 41% 29.95 in 6.2 mi SSW 13.8 mph - N/A   Partly Cloudy
1:00 PM 73.4 °F 53.6 °F 50% 29.95 in 6.2 mi South 15.0 mph - N/A   Partly Cloudy
1:30 PM 75.2 °F 51.8 °F 44% 29.95 in 6.2 mi South 15.0 mph - N/A   Partly Cloudy
2:00 PM 75 °F 52 °F 34% 29.92 in 16 mi South 18.4 mph - -   Partly Cloudy
2:00 PM 75.2 °F 53.6 °F 47% 29.95 in 6.2 mi South 17.3 mph - N/A   Partly Cloudy
2:30 PM 73.4 °F 51.8 °F 47% 29.95 in 6.2 mi South 16.1 mph - N/A   Scattered Clouds
3:00 PM 75.2 °F 53.6 °F 47% 29.95 in 6.2 mi South 13.8 mph - N/A   Scattered Clouds
3:30 PM 73.4 °F 51.8 °F 47% 29.95 in 6.2 mi South 19.6 mph - N/A   Scattered Clouds
4:00 PM 73.4 °F 53.6 °F 50% 29.95 in 6.2 mi South 13.8 mph - N/A   Partly Cloudy
4:30 PM 73.4 °F 51.8 °F 47% 29.95 in 6.2 mi South 13.8 mph - N/A   Partly Cloudy
5:00 PM 73.4 °F 53.6 °F 50% 29.95 in 6.2 mi South 12.7 mph - N/A   Partly Cloudy
5:30 PM 71.6 °F 53.6 °F 53% 29.95 in 6.2 mi SSE 15.0 mph - N/A   Partly Cloudy
6:00 PM 69.8 °F 53.6 °F 56% 29.95 in 6.2 mi South 17.3 mph - N/A   Partly Cloudy
6:30 PM 68.0 °F 53.6 °F 60% 29.95 in 6.2 mi South 12.7 mph - N/A   Partly Cloudy
7:00 PM 68.0 °F 51.8 °F 56% 29.95 in 6.2 mi South 12.7 mph - N/A   Partly Cloudy
7:30 PM 68.0 °F 51.8 °F 56% 29.95 in 6.2 mi South 15.0 mph - N/A   Partly Cloudy
8:00 PM 66 °F 51 °F 47% 29.95 in 19 mi South 11.5 mph - -   Scattered Clouds
8:00 PM 68.0 °F 51.8 °F 56% 29.98 in 6.2 mi South 11.5 mph - N/A   Partly Cloudy
8:30 PM 66.2 °F 51.8 °F 60% 29.98 in 6.2 mi South 10.4 mph - N/A   Partly Cloudy
9:00 PM 66.2 °F 50.0 °F 56% 29.98 in 6.2 mi South 9.2 mph - N/A   Partly Cloudy
9:30 PM 64.4 °F 48.2 °F 56% 29.98 in 6.2 mi South 5.8 mph - N/A   Partly Cloudy
10:00 PM 62.6 °F 46.4 °F 55% 29.98 in 6.2 mi South 8.1 mph - N/A   Partly Cloudy
10:30 PM 62.6 °F 46.4 °F 55% 29.98 in 6.2 mi South 6.9 mph - N/A   Partly Cloudy
11:00 PM 60.8 °F 44.6 °F 55% 30.01 in 6.2 mi SW 3.5 mph - N/A   Partly Cloudy
11:30 PM 59.0 °F 46.4 °F 63% 30.01 in 6.2 mi Calm Calm - N/A   Partly Cloudy